Year,Month,Day,Hour,Minute,Value (Times are PST for temperature in C)
2018,06,18,00,00,18.70
2018,06,18,00,01,18.70
2018,06,18,00,02,18.70
2018,06,18,00,03,18.70
2018,06,18,00,04,18.70
2018,06,18,00,05,18.60
2018,06,18,00,06,18.60
2018,06,18,00,07,18.60
2018,06,18,00,08,18.60
2018,06,18,00,09,18.60
2018,06,18,00,10,18.60
2018,06,18,00,11,18.60
2018,06,18,00,12,18.60
2018,06,18,00,13,18.60
2018,06,18,00,14,18.60
2018,06,18,00,15,18.60
2018,06,18,00,16,18.60
2018,06,18,00,17,18.50
2018,06,18,00,18,18.50
2018,06,18,00,19,18.50
2018,06,18,00,20,18.40
2018,06,18,00,21,18.40
2018,06,18,00,22,18.40
2018,06,18,00,23,18.40
2018,06,18,00,24,18.40
2018,06,18,00,25,18.40
2018,06,18,00,26,18.30
2018,06,18,00,27,18.30
2018,06,18,00,28,18.30
2018,06,18,00,29,18.30
2018,06,18,00,30,18.20
2018,06,18,00,31,18.20
2018,06,18,00,32,18.20
2018,06,18,00,33,18.20
2018,06,18,00,34,18.20
2018,06,18,00,35,18.20
2018,06,18,00,36,18.10
2018,06,18,00,37,18.10
2018,06,18,00,38,18.10
2018,06,18,00,39,18.10
2018,06,18,00,40,18.10
2018,06,18,00,41,18.10
2018,06,18,00,42,18.10
2018,06,18,00,43,18.10
2018,06,18,00,44,18.10
2018,06,18,00,45,18.10
2018,06,18,00,46,18.10
2018,06,18,00,47,18.20
2018,06,18,00,48,18.20
2018,06,18,00,49,18.20
2018,06,18,00,50,18.20
2018,06,18,00,51,18.20
2018,06,18,00,52,18.20
2018,06,18,00,53,18.20
2018,06,18,00,54,18.20
2018,06,18,00,55,18.20
2018,06,18,00,56,18.20
2018,06,18,00,57,18.20
2018,06,18,00,58,18.20
2018,06,18,00,59,18.20
2018,06,18,01,00,18.10
2018,06,18,01,01,18.10
2018,06,18,01,02,18.10
2018,06,18,01,03,18.00
2018,06,18,01,04,18.00
2018,06,18,01,05,17.90
2018,06,18,01,06,17.90
2018,06,18,01,07,17.90
2018,06,18,01,08,17.80
2018,06,18,01,09,17.80
2018,06,18,01,10,17.80
2018,06,18,01,11,17.80
2018,06,18,01,12,17.80
2018,06,18,01,13,17.80
2018,06,18,01,14,17.70
2018,06,18,01,15,17.70
2018,06,18,01,16,17.70
2018,06,18,01,17,17.70
2018,06,18,01,18,17.70
2018,06,18,01,19,17.70
2018,06,18,01,20,17.70
2018,06,18,01,21,17.60
2018,06,18,01,22,17.60
2018,06,18,01,23,17.60
2018,06,18,01,24,17.60
2018,06,18,01,25,17.60
2018,06,18,01,26,17.50
2018,06,18,01,27,17.50
2018,06,18,01,28,17.60
2018,06,18,01,29,17.50
2018,06,18,01,30,17.50
2018,06,18,01,31,17.60
2018,06,18,01,32,17.60
2018,06,18,01,33,17.50
2018,06,18,01,34,17.50
2018,06,18,01,35,17.50
2018,06,18,01,36,17.50
2018,06,18,01,37,17.50
2018,06,18,01,38,17.50
2018,06,18,01,39,17.50
2018,06,18,01,40,17.50
2018,06,18,01,41,17.60
2018,06,18,01,42,17.60
2018,06,18,01,43,17.60
2018,06,18,01,44,17.60
2018,06,18,01,45,17.60
2018,06,18,01,46,17.60
2018,06,18,01,47,17.60
2018,06,18,01,48,17.60
2018,06,18,01,49,17.60
2018,06,18,01,50,17.60
2018,06,18,01,51,17.60
2018,06,18,01,52,17.60
2018,06,18,01,53,17.60
2018,06,18,01,54,17.70
2018,06,18,01,55,17.70
2018,06,18,01,56,17.70
2018,06,18,01,57,17.70
2018,06,18,01,58,17.70
2018,06,18,01,59,17.80
2018,06,18,02,00,17.80
2018,06,18,02,01,17.80
2018,06,18,02,02,17.90
2018,06,18,02,03,17.90
2018,06,18,02,04,17.90
2018,06,18,02,05,17.90
2018,06,18,02,06,17.90
2018,06,18,02,07,17.90
2018,06,18,02,08,17.90
2018,06,18,02,09,17.90
2018,06,18,02,10,17.90
2018,06,18,02,11,17.80
2018,06,18,02,12,17.80
2018,06,18,02,13,17.80
2018,06,18,02,14,17.80
2018,06,18,02,15,17.70
2018,06,18,02,16,17.70
2018,06,18,02,17,17.70
2018,06,18,02,18,17.60
2018,06,18,02,19,17.60
2018,06,18,02,20,17.60
2018,06,18,02,21,17.60
2018,06,18,02,22,17.60
2018,06,18,02,23,17.60
2018,06,18,02,24,17.60
2018,06,18,02,25,17.50
2018,06,18,02,26,17.50
2018,06,18,02,27,17.50
2018,06,18,02,28,17.40
2018,06,18,02,29,17.40
2018,06,18,02,30,17.40
2018,06,18,02,31,17.30
2018,06,18,02,32,17.30
2018,06,18,02,33,17.30
2018,06,18,02,34,17.20
2018,06,18,02,35,17.20
2018,06,18,02,36,17.20
2018,06,18,02,37,17.20
2018,06,18,02,38,17.20
2018,06,18,02,39,17.20
2018,06,18,02,40,17.20
2018,06,18,02,41,17.20
2018,06,18,02,42,17.20
2018,06,18,02,43,17.20
2018,06,18,02,44,17.20
2018,06,18,02,45,17.10
2018,06,18,02,46,17.10
2018,06,18,02,47,17.10
2018,06,18,02,48,17.10
2018,06,18,02,49,17.10
2018,06,18,02,50,17.10
2018,06,18,02,51,17.10
2018,06,18,02,52,17.00
2018,06,18,02,53,17.00
2018,06,18,02,54,17.00
2018,06,18,02,55,16.90
2018,06,18,02,56,16.90
2018,06,18,02,57,16.90
2018,06,18,02,58,16.90
2018,06,18,02,59,16.80
2018,06,18,03,00,16.80
2018,06,18,03,01,16.80
2018,06,18,03,02,16.80
2018,06,18,03,03,16.70
2018,06,18,03,04,16.70
2018,06,18,03,05,16.60
2018,06,18,03,06,16.60
2018,06,18,03,07,16.50
2018,06,18,03,08,16.50
2018,06,18,03,09,16.40
2018,06,18,03,10,16.40
2018,06,18,03,11,16.30
2018,06,18,03,12,16.30
2018,06,18,03,13,16.30
2018,06,18,03,14,16.30
2018,06,18,03,15,16.30
2018,06,18,03,16,16.30
2018,06,18,03,17,16.20
2018,06,18,03,18,16.20
2018,06,18,03,19,16.20
2018,06,18,03,20,16.20
2018,06,18,03,21,16.20
2018,06,18,03,22,16.20
2018,06,18,03,23,16.20
2018,06,18,03,24,16.20
2018,06,18,03,25,16.20
2018,06,18,03,26,16.20
2018,06,18,03,27,16.20
2018,06,18,03,28,16.10
2018,06,18,03,29,16.10
2018,06,18,03,30,16.10
2018,06,18,03,31,16.10
2018,06,18,03,32,16.10
2018,06,18,03,33,16.10
2018,06,18,03,34,16.00
2018,06,18,03,35,16.00
2018,06,18,03,36,16.00
2018,06,18,03,37,16.00
2018,06,18,03,38,16.00
2018,06,18,03,39,16.00
2018,06,18,03,40,16.00
2018,06,18,03,41,16.00
2018,06,18,03,42,15.90
2018,06,18,03,43,15.90
2018,06,18,03,44,15.90
2018,06,18,03,45,15.90
2018,06,18,03,46,15.90
2018,06,18,03,47,15.90
2018,06,18,03,48,15.90
2018,06,18,03,49,15.90
2018,06,18,03,50,15.90
2018,06,18,03,51,15.90
2018,06,18,03,52,15.90
2018,06,18,03,53,15.90
2018,06,18,03,54,15.80
2018,06,18,03,55,15.80
2018,06,18,03,56,15.90
2018,06,18,03,57,15.90
2018,06,18,03,58,15.90
2018,06,18,03,59,15.90
2018,06,18,04,00,15.90
2018,06,18,04,01,16.00
2018,06,18,04,02,16.00
2018,06,18,04,03,16.00
2018,06,18,04,04,16.00
2018,06,18,04,05,16.10
2018,06,18,04,06,16.20
2018,06,18,04,07,16.30
2018,06,18,04,08,16.40
2018,06,18,04,09,16.40
2018,06,18,04,10,16.40
2018,06,18,04,11,16.40
2018,06,18,04,12,16.40
2018,06,18,04,13,16.40
2018,06,18,04,14,16.40
2018,06,18,04,15,16.40
2018,06,18,04,16,16.40
2018,06,18,04,17,16.40
2018,06,18,04,18,16.40
2018,06,18,04,19,16.40
2018,06,18,04,20,16.30
2018,06,18,04,21,16.30
2018,06,18,04,22,16.30
2018,06,18,04,23,16.20
2018,06,18,04,24,16.20
2018,06,18,04,25,16.20
2018,06,18,04,26,16.10
2018,06,18,04,27,16.10
2018,06,18,04,28,16.10
2018,06,18,04,29,16.10
2018,06,18,04,30,16.10
2018,06,18,04,31,16.10
2018,06,18,04,32,16.10
2018,06,18,04,33,16.10
2018,06,18,04,34,16.10
2018,06,18,04,35,16.20
2018,06,18,04,36,16.20
2018,06,18,04,37,16.20
2018,06,18,04,38,16.20
2018,06,18,04,39,16.30
2018,06,18,04,40,16.30
2018,06,18,04,41,16.30
2018,06,18,04,42,16.30
2018,06,18,04,43,16.20
2018,06,18,04,44,16.30
2018,06,18,04,45,16.30
2018,06,18,04,46,16.30
2018,06,18,04,47,16.30
2018,06,18,04,48,16.30
2018,06,18,04,49,16.20
2018,06,18,04,50,16.20
2018,06,18,04,51,16.20
2018,06,18,04,52,16.10
2018,06,18,04,53,16.10
2018,06,18,04,54,16.10
2018,06,18,04,55,16.00
2018,06,18,04,56,16.00
2018,06,18,04,57,16.00
2018,06,18,04,58,16.00
2018,06,18,04,59,16.00
2018,06,18,05,00,16.10
2018,06,18,05,01,16.10
2018,06,18,05,02,16.10
2018,06,18,05,03,16.10
2018,06,18,05,04,16.10
2018,06,18,05,05,16.10
2018,06,18,05,06,16.20
2018,06,18,05,07,16.20
2018,06,18,05,08,16.20
2018,06,18,05,09,16.20
2018,06,18,05,10,16.20
2018,06,18,05,11,16.30
2018,06,18,05,12,16.30
2018,06,18,05,13,16.30
2018,06,18,05,14,16.30
2018,06,18,05,15,16.30
2018,06,18,05,16,16.30
2018,06,18,05,17,16.30
2018,06,18,05,18,16.30
2018,06,18,05,19,16.30
2018,06,18,05,20,16.20
2018,06,18,05,21,16.20
2018,06,18,05,22,16.20
2018,06,18,05,23,16.10
2018,06,18,05,24,16.10
2018,06,18,05,25,16.10
2018,06,18,05,26,16.10
2018,06,18,05,27,16.10
2018,06,18,05,28,16.10
2018,06,18,05,29,16.10
2018,06,18,05,30,16.00
2018,06,18,05,31,16.00
2018,06,18,05,32,16.00
2018,06,18,05,33,16.00
2018,06,18,05,34,16.00
2018,06,18,05,35,15.90
2018,06,18,05,36,15.90
2018,06,18,05,37,15.90
2018,06,18,05,38,16.00
2018,06,18,05,39,16.00
2018,06,18,05,40,16.10
2018,06,18,05,41,16.20
2018,06,18,05,42,16.20
2018,06,18,05,43,16.20
2018,06,18,05,44,16.20
2018,06,18,05,45,16.20
2018,06,18,05,46,16.20
2018,06,18,05,47,16.20
2018,06,18,05,48,16.20
2018,06,18,05,49,16.20
2018,06,18,05,50,16.20
2018,06,18,05,51,16.20
2018,06,18,05,52,16.20
2018,06,18,05,53,16.20
2018,06,18,05,54,16.20
2018,06,18,05,55,16.20
2018,06,18,05,56,16.20
2018,06,18,05,57,16.30
2018,06,18,05,58,16.30
2018,06,18,05,59,16.40
2018,06,18,06,00,16.40
2018,06,18,06,01,16.50
2018,06,18,06,02,16.50
2018,06,18,06,03,16.50
2018,06,18,06,04,16.50
2018,06,18,06,05,16.50
2018,06,18,06,06,16.50
2018,06,18,06,07,16.50
2018,06,18,06,08,16.50
2018,06,18,06,09,16.50
2018,06,18,06,10,16.50
2018,06,18,06,11,16.40
2018,06,18,06,12,16.40
2018,06,18,06,13,16.50
2018,06,18,06,14,16.50
2018,06,18,06,15,16.50
2018,06,18,06,16,16.60
2018,06,18,06,17,16.60
2018,06,18,06,18,16.70
2018,06,18,06,19,16.70
2018,06,18,06,20,16.70
2018,06,18,06,21,16.70
2018,06,18,06,22,16.80
2018,06,18,06,23,16.90
2018,06,18,06,24,16.90
2018,06,18,06,25,16.90
2018,06,18,06,26,16.90
2018,06,18,06,27,16.90
2018,06,18,06,28,16.90
2018,06,18,06,29,16.90
2018,06,18,06,30,16.90
2018,06,18,06,31,16.90
2018,06,18,06,32,16.90
2018,06,18,06,33,16.80
2018,06,18,06,34,16.90
2018,06,18,06,35,16.90
2018,06,18,06,36,16.90
2018,06,18,06,37,16.90
2018,06,18,06,38,16.90
2018,06,18,06,39,16.80
2018,06,18,06,40,16.90
2018,06,18,06,41,16.80
2018,06,18,06,42,16.80
2018,06,18,06,43,16.80
2018,06,18,06,44,16.80
2018,06,18,06,45,16.80
2018,06,18,06,46,16.80
2018,06,18,06,47,16.80
2018,06,18,06,48,16.80
2018,06,18,06,49,16.80
2018,06,18,06,50,16.90
2018,06,18,06,51,16.90
2018,06,18,06,52,16.90
2018,06,18,06,53,16.90
2018,06,18,06,54,16.90
2018,06,18,06,55,17.00
2018,06,18,06,56,17.00
2018,06,18,06,57,17.00
2018,06,18,06,58,17.10
2018,06,18,06,59,17.10
2018,06,18,07,00,17.20
2018,06,18,07,01,17.20
2018,06,18,07,02,17.30
2018,06,18,07,03,17.30
2018,06,18,07,04,17.40
2018,06,18,07,05,17.50
2018,06,18,07,06,17.50
2018,06,18,07,07,17.60
2018,06,18,07,08,17.70
2018,06,18,07,09,17.90
2018,06,18,07,10,18.00
2018,06,18,07,11,18.10
2018,06,18,07,12,18.20
2018,06,18,07,13,18.30
2018,06,18,07,14,18.30
2018,06,18,07,15,18.40
2018,06,18,07,16,18.40
2018,06,18,07,17,18.50
2018,06,18,07,18,18.60
2018,06,18,07,19,18.70
2018,06,18,07,20,18.80
2018,06,18,07,21,18.90
2018,06,18,07,22,19.00
2018,06,18,07,23,19.00
2018,06,18,07,24,19.10
2018,06,18,07,25,19.20
2018,06,18,07,26,19.30
2018,06,18,07,27,19.30
2018,06,18,07,28,19.40
2018,06,18,07,29,19.50
2018,06,18,07,30,19.60
2018,06,18,07,31,19.60
2018,06,18,07,32,19.70
2018,06,18,07,33,19.70
2018,06,18,07,34,19.80
2018,06,18,07,35,19.90
2018,06,18,07,36,19.90
2018,06,18,07,37,20.00
2018,06,18,07,38,20.10
2018,06,18,07,39,20.10
2018,06,18,07,40,20.10
2018,06,18,07,41,20.10
2018,06,18,07,42,20.00
2018,06,18,07,43,20.00
2018,06,18,07,44,20.00
2018,06,18,07,45,20.00
2018,06,18,07,46,20.00
2018,06,18,07,47,20.10
2018,06,18,07,48,20.10
2018,06,18,07,49,20.20
2018,06,18,07,50,20.20
2018,06,18,07,51,20.30
2018,06,18,07,52,20.30
2018,06,18,07,53,20.40
2018,06,18,07,54,20.40
2018,06,18,07,55,20.50
2018,06,18,07,56,20.50
2018,06,18,07,57,20.60
2018,06,18,07,58,20.70
2018,06,18,07,59,20.80
2018,06,18,08,00,20.80
2018,06,18,08,01,20.90
2018,06,18,08,02,21.00
2018,06,18,08,03,21.00
2018,06,18,08,04,21.10
2018,06,18,08,05,21.30
2018,06,18,08,06,21.30
2018,06,18,08,07,21.50
2018,06,18,08,08,21.60
2018,06,18,08,09,21.70
2018,06,18,08,10,21.80
2018,06,18,08,11,21.80
2018,06,18,08,12,21.90
2018,06,18,08,13,22.00
2018,06,18,08,14,22.00
2018,06,18,08,15,22.10
2018,06,18,08,16,22.20
2018,06,18,08,17,22.20
2018,06,18,08,18,22.30
2018,06,18,08,19,22.30
2018,06,18,08,20,22.40
2018,06,18,08,21,22.40
2018,06,18,08,22,22.40
2018,06,18,08,23,22.50
2018,06,18,08,24,22.50
2018,06,18,08,25,22.60
2018,06,18,08,26,22.60
2018,06,18,08,27,22.70
2018,06,18,08,28,22.70
2018,06,18,08,29,22.80
2018,06,18,08,30,22.90
2018,06,18,08,31,22.90
2018,06,18,08,32,23.00
2018,06,18,08,33,23.10
2018,06,18,08,34,23.10
2018,06,18,08,35,23.20
2018,06,18,08,36,23.30
2018,06,18,08,37,23.40
2018,06,18,08,38,23.50
2018,06,18,08,39,23.50
2018,06,18,08,40,23.60
2018,06,18,08,41,23.60
2018,06,18,08,42,23.60
2018,06,18,08,43,23.60
2018,06,18,08,44,23.60
2018,06,18,08,45,23.60
2018,06,18,08,46,23.60
2018,06,18,08,47,23.60
2018,06,18,08,48,23.60
2018,06,18,08,49,23.60
2018,06,18,08,50,23.60
2018,06,18,08,51,23.60
2018,06,18,08,52,23.60
2018,06,18,08,53,23.60
2018,06,18,08,54,23.60
2018,06,18,08,55,23.60
2018,06,18,08,56,23.70
2018,06,18,08,57,23.80
2018,06,18,08,58,23.90
2018,06,18,08,59,24.00
2018,06,18,09,00,24.10
2018,06,18,09,01,24.20
2018,06,18,09,02,24.30
2018,06,18,09,03,24.30
2018,06,18,09,04,24.40
2018,06,18,09,05,24.40
2018,06,18,09,06,24.50
2018,06,18,09,07,24.60
2018,06,18,09,08,24.60
2018,06,18,09,09,24.70
2018,06,18,09,10,24.70
2018,06,18,09,11,24.70
2018,06,18,09,12,24.80
2018,06,18,09,13,24.80
2018,06,18,09,14,24.90
2018,06,18,09,15,24.90
2018,06,18,09,16,25.00
2018,06,18,09,17,25.00
2018,06,18,09,18,25.10
2018,06,18,09,19,25.20
2018,06,18,09,20,25.30
2018,06,18,09,21,25.40
2018,06,18,09,22,25.40
2018,06,18,09,23,25.50
2018,06,18,09,24,25.50
2018,06,18,09,25,25.50
2018,06,18,09,26,25.50
2018,06,18,09,27,25.40
2018,06,18,09,28,25.40
2018,06,18,09,29,25.40
2018,06,18,09,30,25.40
2018,06,18,09,31,25.40
2018,06,18,09,32,25.50
2018,06,18,09,33,25.60
2018,06,18,09,34,25.70
2018,06,18,09,35,25.70
2018,06,18,09,36,25.80
2018,06,18,09,37,25.80
2018,06,18,09,38,25.80
2018,06,18,09,39,25.90
2018,06,18,09,40,25.90
2018,06,18,09,41,25.90
2018,06,18,09,42,26.00
2018,06,18,09,43,26.00
2018,06,18,09,44,26.10
2018,06,18,09,45,26.00
2018,06,18,09,46,25.90
2018,06,18,09,47,25.90
2018,06,18,09,48,25.90
2018,06,18,09,49,25.80
2018,06,18,09,50,25.60
2018,06,18,09,51,25.60
2018,06,18,09,52,25.60
2018,06,18,09,53,25.60
2018,06,18,09,54,25.60
2018,06,18,09,55,25.60
2018,06,18,09,56,25.60
2018,06,18,09,57,25.60
2018,06,18,09,58,25.60
2018,06,18,09,59,25.60
2018,06,18,10,00,25.60
2018,06,18,10,01,25.80
2018,06,18,10,02,25.90
2018,06,18,10,03,25.90
2018,06,18,10,04,26.00
2018,06,18,10,05,26.10
2018,06,18,10,06,26.20
2018,06,18,10,07,26.20
2018,06,18,10,08,26.30
2018,06,18,10,09,26.30
2018,06,18,10,10,26.40
2018,06,18,10,11,26.50
2018,06,18,10,12,26.60
2018,06,18,10,13,26.70
2018,06,18,10,14,26.80
2018,06,18,10,15,26.90
2018,06,18,10,16,27.10
2018,06,18,10,17,27.30
2018,06,18,10,18,27.50
2018,06,18,10,19,27.60
2018,06,18,10,20,27.70
2018,06,18,10,21,27.80
2018,06,18,10,22,28.00
2018,06,18,10,23,28.00
2018,06,18,10,24,28.10
2018,06,18,10,25,28.10
2018,06,18,10,26,28.10
2018,06,18,10,27,28.20
2018,06,18,10,28,28.20
2018,06,18,10,29,28.30
2018,06,18,10,30,28.30
2018,06,18,10,31,28.40
2018,06,18,10,32,28.50
2018,06,18,10,33,28.60
2018,06,18,10,34,28.70
2018,06,18,10,35,28.80
2018,06,18,10,36,28.80
2018,06,18,10,37,28.90
2018,06,18,10,38,29.00
2018,06,18,10,39,29.10
2018,06,18,10,40,29.20
2018,06,18,10,41,29.20
2018,06,18,10,42,29.30
2018,06,18,10,43,29.30
2018,06,18,10,44,29.40
2018,06,18,10,45,29.30
2018,06,18,10,46,29.30
2018,06,18,10,47,29.30
2018,06,18,10,48,29.30
2018,06,18,10,49,29.30
2018,06,18,10,50,29.40
2018,06,18,10,51,29.40
2018,06,18,10,52,29.30
2018,06,18,10,53,29.20
2018,06,18,10,54,29.10
2018,06,18,10,55,29.00
2018,06,18,10,56,28.90
2018,06,18,10,57,28.80
2018,06,18,10,58,28.80
2018,06,18,10,59,28.80
2018,06,18,11,00,28.70
2018,06,18,11,01,28.70
2018,06,18,11,02,28.80
2018,06,18,11,03,28.90
2018,06,18,11,04,29.00
2018,06,18,11,05,29.10
2018,06,18,11,06,29.10
2018,06,18,11,07,29.10
2018,06,18,11,08,29.10
2018,06,18,11,09,29.10
2018,06,18,11,10,29.10
2018,06,18,11,11,29.10
2018,06,18,11,12,29.10
2018,06,18,11,13,29.20
2018,06,18,11,14,29.20
2018,06,18,11,15,29.20
2018,06,18,11,16,29.20
2018,06,18,11,17,29.20
2018,06,18,11,18,29.30
2018,06,18,11,19,29.30
2018,06,18,11,20,29.40
2018,06,18,11,21,29.40
2018,06,18,11,22,29.40
2018,06,18,11,23,29.50
2018,06,18,11,24,29.50
2018,06,18,11,25,29.50
2018,06,18,11,26,29.50
2018,06,18,11,27,29.50
2018,06,18,11,28,29.60
2018,06,18,11,29,29.70
2018,06,18,11,30,29.80
2018,06,18,11,31,29.80
2018,06,18,11,32,29.80
2018,06,18,11,33,29.70
2018,06,18,11,34,29.80
2018,06,18,11,35,29.80
2018,06,18,11,36,29.90
2018,06,18,11,37,29.90
2018,06,18,11,38,29.80
2018,06,18,11,39,29.80
2018,06,18,11,40,29.70
2018,06,18,11,41,29.50
2018,06,18,11,42,29.40
2018,06,18,11,43,29.50
2018,06,18,11,44,29.50
2018,06,18,11,45,29.50
2018,06,18,11,46,29.50
2018,06,18,11,47,29.50
2018,06,18,11,48,29.50
2018,06,18,11,49,29.50
2018,06,18,11,50,29.50
2018,06,18,11,51,29.60
2018,06,18,11,52,29.60
2018,06,18,11,53,29.50
2018,06,18,11,54,29.40
2018,06,18,11,55,29.40
2018,06,18,11,56,29.40
2018,06,18,11,57,29.40
2018,06,18,11,58,29.40
2018,06,18,11,59,29.40
2018,06,18,12,00,29.40
2018,06,18,12,01,29.30
2018,06,18,12,02,29.30
2018,06,18,12,03,29.30
2018,06,18,12,04,29.40
2018,06,18,12,05,29.40
2018,06,18,12,06,29.50
2018,06,18,12,07,29.50
2018,06,18,12,08,29.50
2018,06,18,12,09,29.60
2018,06,18,12,10,29.80
2018,06,18,12,11,29.90
2018,06,18,12,12,29.90
2018,06,18,12,13,30.00
2018,06,18,12,14,30.10
2018,06,18,12,15,30.20
2018,06,18,12,16,30.20
2018,06,18,12,17,30.20
2018,06,18,12,18,30.30
2018,06,18,12,19,30.30
2018,06,18,12,20,30.40
2018,06,18,12,21,30.40
2018,06,18,12,22,30.50
2018,06,18,12,23,30.50
2018,06,18,12,24,30.60
2018,06,18,12,25,30.60
2018,06,18,12,26,30.60
2018,06,18,12,27,30.60
2018,06,18,12,28,30.50
2018,06,18,12,29,30.30
2018,06,18,12,30,30.10
2018,06,18,12,31,29.80
2018,06,18,12,32,29.60
2018,06,18,12,33,29.40
2018,06,18,12,34,29.20
2018,06,18,12,35,29.10
2018,06,18,12,36,28.90
2018,06,18,12,37,28.80
2018,06,18,12,38,28.70
2018,06,18,12,39,28.60
2018,06,18,12,40,28.60
2018,06,18,12,41,28.70
2018,06,18,12,42,28.70
2018,06,18,12,43,28.70
2018,06,18,12,44,28.80
2018,06,18,12,45,28.90
2018,06,18,12,46,28.70
2018,06,18,12,47,28.60
2018,06,18,12,48,28.50
2018,06,18,12,49,28.50
2018,06,18,12,50,28.40
2018,06,18,12,51,28.30
2018,06,18,12,52,28.30
2018,06,18,12,53,28.30
2018,06,18,12,54,28.20
2018,06,18,12,55,28.20
2018,06,18,12,56,28.20
2018,06,18,12,57,28.10
2018,06,18,12,58,28.10
2018,06,18,12,59,28.10
2018,06,18,13,00,28.10
2018,06,18,13,01,28.20
2018,06,18,13,02,28.30
2018,06,18,13,03,28.20
2018,06,18,13,04,28.20
2018,06,18,13,05,28.10
2018,06,18,13,06,28.00
2018,06,18,13,07,28.00
2018,06,18,13,08,28.00
2018,06,18,13,09,28.00
2018,06,18,13,10,28.00
2018,06,18,13,11,28.00
2018,06,18,13,12,28.00
2018,06,18,13,13,28.00
2018,06,18,13,14,28.00
2018,06,18,13,15,28.00
2018,06,18,13,16,28.00
2018,06,18,13,17,28.00
2018,06,18,13,18,28.10
2018,06,18,13,19,28.20
2018,06,18,13,20,28.40
2018,06,18,13,21,28.50
2018,06,18,13,22,28.60
2018,06,18,13,23,28.60
2018,06,18,13,24,28.70
2018,06,18,13,25,28.70
2018,06,18,13,26,28.70
2018,06,18,13,27,28.70
2018,06,18,13,28,28.70
2018,06,18,13,29,28.70
2018,06,18,13,30,28.60
2018,06,18,13,31,28.60
2018,06,18,13,32,28.70
2018,06,18,13,33,28.70
2018,06,18,13,34,28.70
2018,06,18,13,35,28.70
2018,06,18,13,36,28.80
2018,06,18,13,37,28.90
2018,06,18,13,38,28.90
2018,06,18,13,39,28.90
2018,06,18,13,40,28.90
2018,06,18,13,41,28.90
2018,06,18,13,42,28.90
2018,06,18,13,43,29.00
2018,06,18,13,44,29.10
2018,06,18,13,45,29.20
2018,06,18,13,46,29.30
2018,06,18,13,47,29.40
2018,06,18,13,48,29.60
2018,06,18,13,49,29.70
2018,06,18,13,50,29.80
2018,06,18,13,51,29.90
2018,06,18,13,52,30.00
2018,06,18,13,53,30.10
2018,06,18,13,54,30.20
2018,06,18,13,55,30.20
2018,06,18,13,56,30.30
2018,06,18,13,57,30.30
2018,06,18,13,58,30.40
2018,06,18,13,59,30.40
2018,06,18,14,00,30.60
2018,06,18,14,01,30.70
2018,06,18,14,02,30.90
2018,06,18,14,03,31.00
2018,06,18,14,04,31.10
2018,06,18,14,05,31.10
2018,06,18,14,06,31.10
2018,06,18,14,07,31.10
2018,06,18,14,08,31.10
2018,06,18,14,09,31.20
2018,06,18,14,10,31.20
2018,06,18,14,11,31.20
2018,06,18,14,12,31.20
2018,06,18,14,13,31.20
2018,06,18,14,14,31.20
2018,06,18,14,15,31.20
2018,06,18,14,16,31.10
2018,06,18,14,17,31.10
2018,06,18,14,18,31.10
2018,06,18,14,19,31.10
2018,06,18,14,20,31.00
2018,06,18,14,21,30.90
2018,06,18,14,22,30.80
2018,06,18,14,23,30.80
2018,06,18,14,24,30.70
2018,06,18,14,25,30.70
2018,06,18,14,26,30.60
2018,06,18,14,27,30.60
2018,06,18,14,28,30.60
2018,06,18,14,29,30.50
2018,06,18,14,30,30.40
2018,06,18,14,31,30.40
2018,06,18,14,32,30.40
2018,06,18,14,33,30.50
2018,06,18,14,34,30.50
2018,06,18,14,35,30.60
2018,06,18,14,36,30.60
2018,06,18,14,37,30.50
2018,06,18,14,38,30.50
2018,06,18,14,39,30.40
2018,06,18,14,40,30.30
2018,06,18,14,41,30.30
2018,06,18,14,42,30.30
2018,06,18,14,43,30.20
2018,06,18,14,44,30.20
2018,06,18,14,45,30.20
2018,06,18,14,46,30.30
2018,06,18,14,47,30.30
2018,06,18,14,48,30.30
2018,06,18,14,49,30.30
2018,06,18,14,50,30.30
2018,06,18,14,51,30.20
2018,06,18,14,52,30.10
2018,06,18,14,53,30.00
2018,06,18,14,54,30.00
2018,06,18,14,55,30.00
2018,06,18,14,56,30.00
2018,06,18,14,57,30.10
2018,06,18,14,58,30.00
2018,06,18,14,59,30.00
2018,06,18,15,00,30.00
2018,06,18,15,01,30.00
2018,06,18,15,02,30.00
2018,06,18,15,03,30.10
2018,06,18,15,04,30.20
2018,06,18,15,05,30.20
2018,06,18,15,06,30.30
2018,06,18,15,07,30.30
2018,06,18,15,08,30.40
2018,06,18,15,09,30.50
2018,06,18,15,10,30.60
2018,06,18,15,11,30.70
2018,06,18,15,12,30.80
2018,06,18,15,13,30.80
2018,06,18,15,14,30.80
2018,06,18,15,15,30.90
2018,06,18,15,16,30.90
2018,06,18,15,17,30.90
2018,06,18,15,18,31.00
2018,06,18,15,19,31.10
2018,06,18,15,20,31.10
2018,06,18,15,21,31.10
2018,06,18,15,22,31.20
2018,06,18,15,23,31.20
2018,06,18,15,24,31.30
2018,06,18,15,25,31.30
2018,06,18,15,26,31.20
2018,06,18,15,27,31.20
2018,06,18,15,28,31.20
2018,06,18,15,29,31.20
2018,06,18,15,30,31.20
2018,06,18,15,31,31.20
2018,06,18,15,32,31.30
2018,06,18,15,33,31.30
2018,06,18,15,34,31.30
2018,06,18,15,35,31.20
2018,06,18,15,36,31.20
2018,06,18,15,37,31.10
2018,06,18,15,38,31.10
2018,06,18,15,39,31.00
2018,06,18,15,40,31.00
2018,06,18,15,41,31.00
2018,06,18,15,42,31.00
2018,06,18,15,43,31.10
2018,06,18,15,44,31.00
2018,06,18,15,45,31.00
2018,06,18,15,46,30.90
2018,06,18,15,47,30.90
2018,06,18,15,48,30.90
2018,06,18,15,49,30.90
2018,06,18,15,50,30.90
2018,06,18,15,51,30.90
2018,06,18,15,52,30.90
2018,06,18,15,53,30.90
2018,06,18,15,54,30.80
2018,06,18,15,55,30.70
2018,06,18,15,56,30.50
2018,06,18,15,57,30.40
2018,06,18,15,58,30.20
2018,06,18,15,59,30.20
2018,06,18,16,00,30.20
2018,06,18,16,01,30.20
2018,06,18,16,02,30.20
2018,06,18,16,03,30.20
2018,06,18,16,04,30.30
2018,06,18,16,05,30.30
2018,06,18,16,06,30.40
2018,06,18,16,07,30.50
2018,06,18,16,08,30.50
2018,06,18,16,09,30.60
2018,06,18,16,10,30.60
2018,06,18,16,11,30.60
2018,06,18,16,12,30.60
2018,06,18,16,13,30.60
2018,06,18,16,14,30.60
2018,06,18,16,15,30.50
2018,06,18,16,16,30.40
2018,06,18,16,17,30.40
2018,06,18,16,18,30.30
2018,06,18,16,19,30.30
2018,06,18,16,20,30.20
2018,06,18,16,21,30.20
2018,06,18,16,22,30.20
2018,06,18,16,23,30.20
2018,06,18,16,24,30.20
2018,06,18,16,25,30.20
2018,06,18,16,26,30.10
2018,06,18,16,27,30.10
2018,06,18,16,28,30.10
2018,06,18,16,29,30.10
2018,06,18,16,30,30.00
2018,06,18,16,31,30.00
2018,06,18,16,32,30.10
2018,06,18,16,33,30.10
2018,06,18,16,34,30.10
2018,06,18,16,35,30.10
2018,06,18,16,36,30.10
2018,06,18,16,37,30.20
2018,06,18,16,38,30.30
2018,06,18,16,39,30.30
2018,06,18,16,40,30.40
2018,06,18,16,41,30.40
2018,06,18,16,42,30.50
2018,06,18,16,43,30.60
2018,06,18,16,44,30.70
2018,06,18,16,45,30.80
2018,06,18,16,46,30.90
2018,06,18,16,47,31.00
2018,06,18,16,48,31.10
2018,06,18,16,49,31.20
2018,06,18,16,50,31.30
2018,06,18,16,51,31.30
2018,06,18,16,52,31.40
2018,06,18,16,53,31.50
2018,06,18,16,54,31.60
2018,06,18,16,55,31.60
2018,06,18,16,56,31.80
2018,06,18,16,57,31.80
2018,06,18,16,58,31.90
2018,06,18,16,59,32.00
2018,06,18,17,00,32.20
2018,06,18,17,01,32.20
2018,06,18,17,02,32.30
2018,06,18,17,03,32.40
2018,06,18,17,04,32.50
2018,06,18,17,05,32.60
2018,06,18,17,06,32.70
2018,06,18,17,07,32.80
2018,06,18,17,08,32.90
2018,06,18,17,09,33.00
2018,06,18,17,10,33.10
2018,06,18,17,11,33.20
2018,06,18,17,12,33.30
2018,06,18,17,13,33.30
2018,06,18,17,14,33.40
2018,06,18,17,15,33.40
2018,06,18,17,16,33.40
2018,06,18,17,17,33.50
2018,06,18,17,18,33.50
2018,06,18,17,19,33.60